VK2HIM-1 Weather Reports


Display with metric or nautical units.
time (UTC)temp
F
wind
direction
speed
MPH
gust
MPH
rain 1hr
in
rain 24hr
in
rain mn
in
humidity
%
barometer
mb
20260503200349 67 40 3.0 6.0 0.00 0.00 0.00 83 1015.0
20260503193349 67 56 5.0 9.0 0.00 0.00 0.00 85 1015.1
20260503190349 67 54 6.0 7.0 0.00 0.00 0.00 85 1015.3
20260503183348 67 26 1.0 2.0 0.00 0.00 0.00 84 1015.5
20260503180348 67 332 3.0 5.0 0.00 0.00 0.00 82 1015.5
20260503173345 66 83 0.0 0.0 0.00 0.00 0.00 84 1015.5
20260503170350 67 35 5.0 12.0 0.00 0.00 0.00 84 1015.2
20260503150350 67 8 5.0 8.0 0.00 0.00 0.00 86 1016.1
20260503130349 69 312 7.0 12.0 0.00 0.00 0.00 81 1016.6
20260503110348 69 320 1.0 1.0 0.00 0.00 0.00 83 1017.5
20260503090347 70 44 12.0 13.0 0.00 0.00 0.00 84 1017.2
20260503080346 70 46 10.0 14.0 0.00 0.00 0.00 83 1017.0
20260503070346 71 46 6.0 7.0 0.00 0.00 0.00 82 1017.2
20260503053346 73 36 13.0 20.0 0.00 0.00 0.00 78 1017.7
20260503050346 73 30 8.0 13.0 0.00 0.00 0.00 78 1017.9
20260503043346 74 48 8.0 13.0 0.00 0.00 0.00 76 1018.0
20260503040345 73 40 10.0 14.0 0.00 0.00 0.00 76 1018.2
20260503033348 73 45 9.0 17.0 0.00 0.00 0.00 76 1018.5
20260503030348 72 56 10.0 14.0 0.00 0.00 0.00 76 1019.1
20260503023348 72 66 13.0 20.0 0.00 0.00 0.00 75 1019.3
20260503020348 72 60 12.0 17.0 0.00 0.00 0.00 73 1019.7
20260503013348 73 51 14.0 20.0 0.00 0.00 0.00 71 1020.2
20260503010347 73 36 5.0 9.0 0.00 0.00 0.00 66 1020.6
20260503003347 72 31 10.0 18.0 0.00 0.00 0.00 67 1020.6
20260503000347 73 10 6.0 10.0 0.00 0.00 0.00 68 1021.1
20260502233346 72 40 10.0 16.0 0.00 0.00 0.00 69 1021.0
20260502230346 71 24 10.0 13.0 0.00 0.00 0.00 71 1021.2
20260502223346 70 9 9.0 13.0 0.00 0.00 0.00 72 1021.4
20260502220346 69 13 10.0 13.0 0.00 0.00 0.00 74 1021.4
20260502213346 68 48 9.0 14.0 0.00 0.00 0.00 75 1021.4
20260502210346 68 11 9.0 13.0 0.00 0.00 0.00 76 1020.9
20260502203346 68 33 10.0 16.0 0.00 0.00 0.00 77 1020.7